Location: ????????’????
(48.7317°N, 37.6976°E)
Time: 14:18:19
(UTC+00:00)

Daily predictions for brighter satellites

Satellite Brightness Start Highest point End
(mag) Time Altitude Azimuth Time Altitude Azimuth Time Altitude Azimuth
Cosmos 2184 Rocket 4.2 18:05:51 10° N 18:11:59 60° ENE 18:18:07 10° SSE
Cosmos 1850 Rocket 4.0 18:09:00 10° NNW 18:14:15 83° ENE 18:19:25 10° SSE
Cosmos 2344 4.4 18:06:55 10° NW 18:15:26 67° NE 18:27:11 10° SE
Resurs 01 Rocket 2.3 18:12:10 10° S 18:16:31 56° W 18:20:56 10° NNW
GEOS 3 Rocket 4.1 18:12:46 10° SSE 18:17:45 54° SW 18:22:47 10° NW
Cosmos 1331 Rocket 4.4 18:15:08 10° S 18:20:08 44° ESE 18:25:10 10° NE
Cosmos 1656 4.0 18:14:56 10° NNW 18:20:21 63° WSW 18:25:48 10° SSE
USA 32 4.2 18:16:53 10° S 18:22:06 80° W 18:27:22 10° N
SPOT 5 3.1 18:20:00 10° SE 18:24:09 47° ENE 18:28:19 10° N
Spot 2 Rocket 3.8 18:21:39 10° SSE 18:26:38 56° ENE 18:31:38 10° N
Terra 2.6 18:22:18 10° SE 18:26:41 38° ENE 18:31:04 10° N
MetOp-B 4.3 18:23:11 10° S 18:28:33 77° WSW 18:33:56 10° NNW
SPOT 1/Viking Rocket 4.2 18:24:27 10° S 18:29:29 55° W 18:34:35 10° NNW
H-2A R/B 3.1 18:28:35 10° N 18:32:54 51° WNW 18:37:16 10° SW
CZ-4B R/B 1.9 18:32:19 10° N 18:35:08 51° WNW 18:37:56 10° SSW
Cosmos 1697 Rocket 2.7 18:30:52 10° NNW 18:36:32 88° ENE 18:42:04 10° SSE
Cosmos 1980 Rocket 2.7 18:31:02 10° NNW 18:36:37 51° NE 18:41:58 11° SE
SL-16 R/B 4.1 18:32:55 10° N 18:37:07 21° NE 18:41:18 10° E
Cosmos 1536 Rocket 3.6 18:33:35 10° S 18:37:55 83° W 18:42:19 10° N
USA 245 3.1 18:35:41 10° SSE 18:39:40 79° WSW 18:42:54 10° NNW
FALCON 9 DEB 3.9 18:37:51 10° WNW 18:41:01 48° NNE 18:44:11 10° E
Meteor 2-1 Rocket 4.3 18:35:34 10° N 18:41:03 63° ENE 18:46:24 11° SSE
CARTOSAT-1 4.0 18:36:54 10° S 18:41:10 63° W 18:45:28 10° NNW
Cosmos 1606 Rocket 3.8 18:37:43 10° N 18:41:59 54° ENE 18:45:55 12° SSE
Cosmos 2369 4.0 18:36:39 10° NNW 18:42:22 61° ENE 18:47:38 12° SE
Cosmos 1452 Rocket 3.8 18:38:00 10° SSW 18:43:15 75° WNW 18:48:33 10° NNE
Lacrosse 5 4.1 18:43:41 10° W 18:46:32 15° WSW 18:49:22 10° SSW
ATLAS 5 CENTAUR R/B 3.0 18:45:44 12° SE 18:46:34 13° ESE 18:48:24 10° E
ERS-1 Rocket 3.0 18:42:21 10° SSE 18:47:18 72° ENE 18:52:20 10° N
ARIANE 5 R/B 3.3 18:43:41 12° SE 18:47:30 42° ENE 18:51:40 10° N
Cosmos 1110 Rocket 4.0 18:42:50 10° SSW 18:48:06 81° ESE 18:53:26 10° NNE
COSMOS 2406 3.4 18:44:51 10° S 18:50:25 52° ESE 18:56:00 10° NE
Cosmos 1302 Rocket 4.5 18:46:31 10° S 18:51:20 40° ESE 18:56:10 10° NE
USA 276 2.3 18:49:24 10° W 18:52:25 67° N 18:55:27 10° E
Cosmos 2074 Rocket 4.3 18:47:21 10° NNW 18:53:36 70° W 18:59:47 10° S
Cosmos 1833 Rocket 2.8 18:56:03 10° SSW 19:01:40 82° WNW 19:07:20 10° NNE
Cosmos 968 Rocket 3.6 18:57:04 10° NNW 19:02:17 69° ENE 19:06:32 16° SSE
Cosmos 1726 Rocket 3.5 19:00:02 10° N 19:04:22 71° E 19:07:49 16° SSE
Nadezhda 1 Rocket 3.9 18:59:31 10° S 19:05:35 84° E 19:11:42 10° N
USA 267 4.2 19:00:28 10° ENE 19:05:36 24° SE 19:10:43 10° S
Cosmos 1703 4.3 19:06:07 10° SSW 19:09:48 45° WNW 19:13:32 10° N
Cosmos 2322 Rocket 3.9 19:07:36 10° N 19:12:14 25° NE 19:16:53 10° E
Cosmos 1408 3.0 19:11:35 20° SSE 19:13:33 39° E 19:16:48 10° NNE
Cosmos 192 4.3 19:09:51 10° SSW 19:14:43 72° ESE 19:19:37 10° NNE
RESURS DK-1 4.4 19:16:30 10° WNW 19:19:34 20° WSW 19:22:37 10° SSW
Cosmos 1867 3.6 19:15:22 10° NW 19:20:52 85° SW 19:24:54 19° SE
Cosmos 1825 3.5 19:19:37 18° SE 19:21:10 24° E 19:24:13 10° NE
Cosmos 2278 3.9 19:19:02 10° NNW 19:24:46 68° ENE 19:28:59 18° SE
Cosmos 2084 Rocket 4.2 19:24:28 10° NW 19:28:06 38° SW 19:30:29 19° S
Cosmos 2333 Rocket 4.5 19:25:36 10° N 19:29:24 18° NE 19:33:12 10° ENE
Meteor 1-11 4.2 19:24:56 14° S 19:29:44 68° E 19:35:17 10° NNE
Helios 1A Rocket 4.0 19:26:53 12° SSW 19:30:22 39° W 19:34:15 10° NNW
X-37B 2.5 19:33:42 10° WSW 19:35:02 14° SW 19:35:02 14° SW
Cosmos 2082 Rocket 2.2 19:31:46 10° SSW 19:37:29 83° ESE 19:43:12 10° NNE
USA 234 3.9 19:35:05 10° E 19:41:29 57° NNE 19:47:53 10° NW
CZ-2C R/B 4.2 19:37:51 10° N 19:42:20 59° WNW 19:46:43 10° SSW
SL-8 Rocket 4.0 19:37:54 10° N 19:44:10 83° E 19:48:34 21° SSE
SAR-Lupe-4 3.8 19:41:41 10° NNE 19:45:12 52° E 19:46:45 29° SSE
Cosmos 2360 Rocket 3.7 19:42:45 10° NNW 19:47:40 29° NE 19:52:33 10° ESE
Cosmos 1892 Rocket 3.9 19:44:01 13° SSW 19:47:51 65° WNW 19:52:13 10° N
ALOS 2 4.3 19:45:55 14° ESE 19:48:37 24° ENE 19:52:06 10° N
Cosmos 2058 Rocket 3.4 19:49:53 10° NNW 19:54:16 62° W 19:57:03 22° S
Cosmos 1626 Rocket 3.7 19:56:48 27° SSE 19:58:56 58° E 20:03:14 10° NNE
Cosmos 1606 4.3 19:56:41 10° NNE 19:59:56 25° ENE 20:01:34 19° ESE
Cosmos 1992 Rocket 4.0 19:56:26 19° S 20:00:11 70° ESE 20:05:25 10° NNE
SAR-Lupe-1 4.0 19:58:16 10° NNE 20:01:52 86° WNW 20:03:44 27° SSW
Cosmos 1486 Rocket 4.0 19:56:50 10° NNW 20:02:05 84° WSW 20:05:06 26° SSE
Cosmos 2366 rocket 4.0 19:57:28 10° N 20:03:51 86° W 20:08:07 23° S
Terra 3.3 20:00:49 12° SSW 20:04:30 30° W 20:08:41 10° NNW
Cosmos 1633 3.2 20:04:57 32° SE 20:05:45 37° E 20:08:58 10° NNE
Cosmos 2218 Rocket 4.1 20:02:17 10° N 20:08:43 80° W 20:12:59 23° S
SJ 16-02 2.1 20:05:56 10° N 20:10:13 44° ENE 20:12:32 24° ESE
Cosmos 1892 3.4 20:09:28 18° SW 20:11:58 48° WNW 20:15:39 10° N
ADEOS Rocket 4.0 20:09:03 19° SE 20:14:22 55° ENE 20:21:54 10° N
ASTEX 1 3.8 20:10:46 10° N 20:15:43 62° W 20:19:15 19° SSW
Cosmos 2058 4.3 20:15:48 21° ESE 20:17:00 25° E 20:20:24 10° NE
FALCON 9 DEB 3.3 20:14:08 10° WNW 20:17:18 46° SSW 20:17:36 44° SSW
Cosmos 807 3.9 20:14:27 10° N 20:17:30 79° E 20:18:02 55° SSE
Cosmos 1980 Rocket 3.5 20:15:27 10° NW 20:20:22 31° WSW 20:23:43 17° SSW
SL-16 R/B 2.2 20:16:23 10° NNW 20:22:06 85° ENE 20:25:19 27° SSE
ARIANE 5 R/B 4.4 20:21:13 13° SW 20:24:06 24° W 20:27:42 10° NW
Cosmos 2219 Rocket 4.0 20:19:24 10° NNW 20:24:07 26° NE 20:28:49 10° E
GP-B 4.0 20:20:32 10° N 20:24:46 45° W 20:27:35 19° SW
USA 276 2.1 20:25:11 10° WNW 20:28:04 54° SSW 20:28:04 54° SSW
ATLAS 5 CENTAUR R/B 1.4 20:27:05 14° SW 20:30:17 72° NW 20:34:34 10° NE
Cosmos 1354 Rocket 4.0 20:25:45 10° NNW 20:31:06 86° ENE 20:33:47 30° SSE
SL-4 R/B 2.9 20:38:49 26° ESE 20:38:49 26° ESE 20:40:57 10° ENE
ERS-2 3.7 20:35:39 10° NE 20:38:27 21° E 20:38:46 21° ESE
Cosmos 1503 Rocket 4.1 20:35:01 10° NNW 20:40:17 68° WSW 20:42:43 32° S
Cosmos 1777 Rocket 4.0 20:41:43 10° NNW 20:47:03 79° ENE 20:49:40 31° SSE
USA 267 3.2 20:42:46 10° ENE 20:49:20 75° SE 20:55:53 10° SW
Cosmos 1758 Rocket 3.5 20:48:23 35° SSW 20:50:12 82° W 20:54:38 10° N
Cosmos 1825 3.9 20:54:14 16° WSW 20:56:24 27° WNW 20:59:39 10° NNW
Cosmos 2322 Rocket 2.2 20:51:12 10° NNW 20:56:54 75° WSW 20:59:38 32° SSE
Spot 4 4.2 20:56:04 31° SSW 20:58:05 54° W 21:02:48 10° NNW
Cosmos 1821 Rocket 4.1 20:52:14 10° NNW 20:58:25 69° W 21:01:44 28° S
Cosmos 1238 4.2 20:58:03 63° S 20:58:31 86° ESE 21:02:05 10° N
Cosmos 1812 Rocket 4.3 20:56:00 10° NNW 21:00:16 45° W 21:02:00 30° SW
Cosmos 44 3.8 21:00:13 34° SE 21:00:59 36° ESE 21:05:06 10° NE
Cosmos-2242 3.5 21:00:49 10° NNW 21:04:55 49° W 21:06:23 33° SW
Cosmos 2333 Rocket 2.5 21:09:05 10° NNW 21:14:51 66° ENE 21:18:28 23° SE
Cosmos 1605 Rocket 4.4 21:08:43 10° N 21:15:03 57° ENE 21:18:47 25° SE
Cosmos 972 Rocket 4.1 21:14:58 10° NNW 21:20:12 88° ENE 21:22:57 32° SSE
Nadezhda 3 Rocket 4.2 21:17:30 26° SSW 21:21:06 66° WNW 21:27:16 10° N
Cosmos 2082 Rocket 4.4 21:17:47 10° W 21:22:16 23° NW 21:26:46 10° N
USA 234 3.2 21:19:45 20° SE 21:24:26 69° SW 21:30:59 10° WNW
Gbstr 26 Del rocket 3.1 21:22:45 34° SW 21:24:29 61° SSE 21:29:37 10° ENE
ALOS 2 3.2 21:23:19 33° SW 21:24:42 43° W 21:28:55 10° NNW
Cosmos 1340 Rocket 2.7 21:30:22 46° SSW 21:31:28 77° WNW 21:35:27 10° N
Cosmos 2360 Rocket 2.3 21:26:28 10° NNW 21:32:05 62° WSW 21:34:30 34° S
Meteor 2-3 Rocket 4.3 21:30:37 28° SSE 21:33:07 45° E 21:38:25 10° NNE
Cosmos 1812 4.3 21:30:42 10° NNE 21:34:02 27° ENE 21:35:41 20° ESE
BREEZE-M DEB (TANK) 2.8 21:35:29 48° SSE 21:35:29 48° SSE 21:40:47 10° ENE
Cosmos 1606 4.0 21:32:09 10° NNW 21:35:30 29° W 21:36:26 25° WSW
Cosmos 2333 4.2 21:33:14 10° NNW 21:39:02 85° WSW 21:42:04 30° SSE
Cosmos 1953 Rocket 3.7 21:38:45 37° SSW 21:40:22 68° W 21:44:48 10° N
CZ-2D R/B 4.4 21:38:24 10° ENE 21:40:32 12° E 21:42:41 10° ESE
CRYOSAT 2 4.3 21:40:44 37° S 21:42:41 79° W 21:47:37 10° N
Cosmos 1763 Rocket 4.0 21:41:39 32° SSE 21:43:36 46° ESE 21:48:40 10° NNE
Cosmos 2151 3.8 21:46:29 31° SE 21:47:53 41° E 21:51:57 10° NNE
Cosmos 1833 4.1 21:45:16 30° SSW 21:48:10 88° WNW 21:53:48 10° NNE
SJ 16-02 2.9 21:45:03 10° NW 21:48:29 22° W 21:49:28 21° WSW
PSLV R/B 3.7 21:44:55 10° NNE 21:49:42 88° WNW 21:51:33 37° SSW
Cosmos 1782 3.1 21:48:58 10° N 21:52:55 57° ENE 21:54:16 36° SE
Cosmos 2058 4.1 21:51:56 24° WSW 21:53:42 33° WNW 21:57:32 10° N
Cosmos 990 Rocket 3.9 21:49:33 10° NNW 21:54:44 87° ENE 21:57:18 30° SSE
Cosmos 2237 Rocket 3.8 21:52:24 10° NNW 21:57:30 33° NE 22:02:34 10° ESE
ADEOS Rocket 4.3 21:56:00 23° SW 22:00:02 39° W 22:07:12 10° NNW
COSMOS 2428 2.8 21:55:42 10° NNW 22:01:26 76° ENE 22:05:22 21° SE
Cosmos 2221 3.0 21:57:55 10° NNW 22:02:08 50° W 22:03:27 36° SW
COSMOS 2455 4.0 21:58:52 10° NNW 22:04:36 42° NE 22:10:17 10° ESE
Nimbus 7 Rocket 4.5 21:58:56 10° NNE 22:04:52 75° WNW 22:08:12 28° SSW
Cosmos 2297 Rocket 4.0 22:02:19 14° SE 22:05:01 19° E 22:08:48 10° ENE
SL-16 R/B 3.9 22:01:54 10° WNW 22:05:27 17° W 22:07:09 15° WSW
USA 290 2.3 22:02:15 10° NNW 22:05:30 71° ENE 22:06:08 52° SE
Cosmos 2219 Rocket 2.2 22:02:57 10° NNW 22:08:37 72° WSW 22:11:32 30° SSE
Cosmos 1842 Rocket 3.8 22:05:20 10° NNW 22:09:44 56° W 22:11:12 37° SSW
Cosmos 1153 Rocket 4.5 22:04:50 10° N 22:11:14 88° E 22:14:52 27° S
Cosmos 468 Rocket 4.1 22:08:55 34° S 22:11:15 69° ESE 22:16:33 10° NNE
ERS-2 3.4 22:08:38 10° N 22:11:51 31° WNW 22:13:08 24° WSW
NOSS 3-2 (A) 3.7 22:10:38 31° S 22:12:57 48° ESE 22:18:59 10° NE
Cosmos 2322 3.7 22:08:45 10° NNW 22:14:25 70° WSW 22:17:21 29° S
ISS -3.9 22:14:52 63° S 22:15:06 66° SSE 22:18:27 10° ENE
Cosmos 540 Rocket 3.8 22:13:10 31° SSE 22:15:20 53° ESE 22:20:21 10° NNE
ATLAS 5 CENTAUR R/B 4.1 22:12:44 10° WNW 22:15:40 19° NNW 22:18:55 10° NNE
SL-4 R/B 1.9 22:14:13 17° W 22:16:52 69° NNW 22:20:40 10° ENE
COSMOS 2487 2.4 22:17:22 50° WSW 22:17:47 56° WNW 22:20:49 10° NNE
Geosat 4.3 22:16:41 14° SE 22:20:57 65° NE 22:25:57 10° NNW
SL-27 R/B 2.9 22:20:25 39° WSW 22:21:09 48° WNW 22:24:21 10° NNE
CENTAUR R/B 2.7 22:22:29 29° S 22:25:25 56° ESE 22:32:16 10° NE
USA 267 4.0 22:25:53 10° ENE 22:32:14 54° NNW 22:38:33 10° W
Cosmos 1459 Rocket 4.0 22:26:38 10° N 22:32:43 75° E 22:36:49 22° SSE
Cosmos 1727 Rocket 4.0 22:32:44 28° SSW 22:36:20 78° W 22:42:40 10° N
Cosmos 2322 Rocket 4.2 22:37:41 10° WNW 22:39:56 12° W 22:41:25 11° WSW
Cosmos 1898 Rocket 3.6 22:36:00 10° NNW 22:41:06 59° WSW 22:43:36 29° S
Cosmos 44 4.3 22:38:35 14° WSW 22:42:09 38° NW 22:46:19 10° NNE
SL-16 R/B 3.3 22:36:29 10° SE 22:42:30 52° ENE 22:48:33 10° N
Cosmos 1937 Rocket 3.5 22:42:44 10° NNW 22:47:59 71° WSW 22:51:03 25° S
MOS 1 Rocket 4.2 22:45:58 13° SE 22:50:31 55° ENE 22:55:47 10° N
Meteor 2-6 Rocket 4.3 22:45:48 10° NNW 22:51:46 88° W 22:55:43 21° S
Cosmos 2100 Rocket 4.1 22:48:20 10° NNW 22:54:42 72° W 22:58:48 23° S
Cosmos 2333 Rocket 3.5 22:54:11 10° NW 22:58:38 23° WSW 23:00:26 20° SW
Cosmos 2173 Rocket 4.1 22:52:27 10° NNW 22:58:49 71° W 23:03:02 22° S
Cosmos 1980 3.7 22:54:31 10° NNW 23:00:15 85° ENE 23:05:56 10° SSE
Cosmos 1725 Rocket 4.1 22:54:34 10° N 23:00:47 76° E 23:05:58 15° SSE
Cosmos 1340 2.5 22:57:05 10° NNW 23:00:49 88° W 23:02:33 30° S
NOSS 3-2 (C) 3.6 22:58:02 26° S 23:01:09 57° ESE 23:07:24 10° NE
CZ-4 R/B 4.4 22:57:17 10° NNE 23:02:05 53° E 23:05:15 21° S
Cosmos 2123 Rocket 4.1 22:59:46 21° S 23:04:08 74° E 23:10:29 10° NNE
BREEZE-M DEB (TANK) 4.4 22:59:36 10° WNW 23:05:50 25° WSW 23:06:22 24° SW
Okean 3 Rocket 4.3 23:04:04 19° SSE 23:06:59 48° E 23:11:23 10° NNE
USA 234 4.4 23:07:03 20° SW 23:08:14 21° SW 23:13:04 10° WNW
Cosmos 1814 Rocket 4.3 23:06:14 23° S 23:09:19 56° ESE 23:14:22 10° NNE
Resurs 1-4 Rocket 2.3 23:04:08 10° NNE 23:09:28 69° ESE 23:13:00 22° S
Cosmos 1812 4.0 23:06:27 10° NW 23:09:36 25° W 23:10:36 22° WSW
Meteor 1-10 Rocket 4.3 23:04:46 10° NNW 23:10:43 89° W 23:15:21 17° S
Gbstr 26 Del rocket 3.8 23:06:48 10° W 23:11:29 65° N 23:17:20 10° ENE
Cosmos 2016 Rocket 3.9 23:07:55 10° N 23:14:03 82° W 23:18:48 18° S
SL-16 R/B 3.4 23:11:39 10° NNW 23:17:06 43° NE 23:22:30 10° SE
Cosmos 1356 Rocket 3.5 23:15:13 24° S 23:17:27 64° E 23:21:26 10° NNE
Cosmos 2227 Rocket 2.9 23:15:11 18° S 23:19:03 45° ESE 23:24:27 10° NE
USA 238 DEB 3.7 23:14:56 22° SSW 23:19:20 73° SE 23:26:11 10° NE
USA 238 3.7 23:15:05 22° SSW 23:19:29 73° SE 23:26:19 10° NE
BREEZE-M DEB (TANK) 2.0 23:16:14 10° W 23:20:08 89° NW 23:22:20 10° ESE
CZ-2D R/B 2.1 23:16:08 10° NNE 23:21:24 82° ESE 23:25:01 21° SSW
Lacrosse 4 Rocket 2.9 23:19:55 10° NNW 23:23:44 38° NE 23:27:33 10° ESE
Cosmos 1184 Rocket 3.5 23:21:12 10° NNW 23:23:58 32° W 23:24:32 29° WSW
Timation 1 Rocket 4.4 23:19:51 21° SW 23:24:00 77° WNW 23:30:04 10° NNE
Cosmos 1570 Rocket 4.4 23:22:13 19° S 23:25:49 58° ESE 23:30:59 10° NNE
Cosmos 371 Rocket 4.0 23:21:51 10° NNW 23:26:36 54° ENE 23:31:20 10° SE
Cosmos 372 Rocket 4.4 23:22:37 10° NW 23:27:36 45° WSW 23:30:49 20° SSW
YAOGAN 11 4.3 23:24:13 11° SSE 23:28:36 74° ENE 23:33:06 10° N
Cosmos 1862 4.2 23:27:47 22° SW 23:29:43 35° WNW 23:33:22 10° N
Cosmos 1125 Rocket 4.3 23:27:17 10° NNW 23:32:32 55° ENE 23:37:44 10° SE
Cosmos 1802 Rocket 4.3 23:27:17 10° NNW 23:33:17 51° W 23:37:49 18° SSW
Cosmos 1151 Rocket 3.5 23:29:43 10° NNW 23:33:54 44° W 23:36:21 22° SSW
Cosmos 1400 Rocket 3.7 23:31:49 15° SSE 23:34:53 44° E 23:38:45 10° NNE
Cosmos 841 Rocket 3.9 23:32:18 19° SW 23:35:49 52° WNW 23:40:54 10° NNE
ADEOS II 2.3 23:32:24 10° NNE 23:37:40 66° ESE 23:42:00 15° S
Cosmos 2208 Rocket 4.5 23:33:43 17° S 23:37:51 59° ESE 23:43:09 10° NNE
Meteor 1-28 Rocket 3.2 23:35:37 13° SSE 23:38:53 77° ENE 23:42:37 10° N
Thor Agena Rocket 4.1 23:34:35 10° N 23:39:31 46° WNW 23:43:06 17° SW
Cosmos 2237 Rocket 2.4 23:36:20 10° NW 23:41:50 52° WSW 23:47:03 11° S
SL-23 DEB 3.8 23:39:14 10° W 23:42:20 63° N 23:46:03 10° ENE
Cosmos 2061 Rocket 4.2 23:36:52 10° NNW 23:43:11 60° W 23:48:34 15° SSW
COSMOS 2428 4.2 23:41:03 10° NW 23:45:03 20° W 23:47:19 16° SW
Cosmos 1666 4.3 23:42:58 10° SSE 23:46:14 30° E 23:49:30 10° NNE
Cosmos 1328 Rocket 3.8 23:42:30 10° NNW 23:46:47 51° W 23:49:51 18° SSW
Cosmos 2297 Rocket 2.2 23:44:07 18° SSW 23:48:23 79° WNW 23:54:04 10° NNE
SWAS 4.5 23:47:03 20° SSW 23:50:00 81° ESE 23:54:20 10° NNE
Cosmos 1602 3.9 23:47:11 16° S 23:50:06 69° E 23:53:54 10° NNE
COSMOS 2455 3.2 23:44:54 10° NW 23:50:37 46° WSW 23:56:18 10° S
Cosmos 2219 3.4 23:46:18 16° SSW 23:50:46 69° ESE 23:56:22 10° NNE
Cosmos 2219 Rocket 4.1 23:49:36 10° WNW 23:51:31 12° W 23:53:12 10° WSW
ISS -2.9 23:48:39 10° W 23:51:58 52° N 23:55:16 10° ENE
